| time (UTC) | temp F | wind direction | speed MPH | gust MPH | rain 1hr in | rain 24hr in | rain mn in | humidity % | barometer mb |
| 20260504210221 | 59 | 0 | 7.0 | 17.0 | 0.01 | 0.01 | 0.00 | 50 | 1001.1 |
| 20260504205318 | 61 | 0 | 6.0 | 15.0 | 0.01 | 0.01 | 0.00 | 50 | 1000.7 |
| 20260504204441 | 64 | 0 | 8.0 | 17.0 | 0.00 | 0.00 | 0.00 | 38 | 1000.3 |
| 20260504202653 | 65 | 0 | 11.0 | 22.0 | 0.00 | 0.00 | 0.00 | 34 | 999.4 |
| 20260504201731 | 67 | 0 | 13.0 | 26.0 | 0.00 | 0.00 | 0.00 | 31 | 999.0 |
| 20260504200748 | 71 | 0 | 8.0 | 17.0 | 0.00 | 0.00 | 0.00 | 26 | 998.6 |
| 20260504195838 | 72 | 0 | 6.0 | 14.0 | 0.00 | 0.00 | 0.00 | 26 | 998.6 |
| 20260504194858 | 74 | 315 | 4.0 | 10.0 | 0.00 | 0.00 | 0.00 | 26 | 998.6 |
| 20260504193948 | 75 | 292 | 4.0 | 12.0 | 0.00 | 0.00 | 0.00 | 28 | 998.8 |
| 20260504193254 | 77 | 315 | 6.0 | 14.0 | 0.00 | 0.00 | 0.00 | 25 | 998.7 |
| 20260504193148 | 77 | 315 | 6.0 | 14.0 | 0.00 | 0.00 | 0.00 | 25 | 998.7 |
| 20260504192313 | 77 | 315 | 8.0 | 16.0 | 0.00 | 0.00 | 0.00 | 26 | 998.7 |
| 20260504191424 | 76 | 270 | 8.0 | 16.0 | 0.00 | 0.00 | 0.00 | 24 | 998.7 |
| 20260504190613 | 76 | 270 | 10.0 | 18.0 | 0.00 | 0.00 | 0.00 | 25 | 998.8 |
| 20260504185808 | 76 | 270 | 12.0 | 18.0 | 0.00 | 0.00 | 0.00 | 24 | 999.0 |
| 20260504184828 | 76 | 270 | 9.0 | 15.0 | 0.00 | 0.00 | 0.00 | 26 | 998.8 |
| 20260504183918 | 76 | 270 | 11.0 | 17.0 | 0.00 | 0.00 | 0.00 | 26 | 999.1 |
| 20260504183049 | 75 | 270 | 12.0 | 20.0 | 0.00 | 0.00 | 0.00 | 27 | 999.2 |
| 20260504181158 | 71 | 248 | 11.0 | 18.0 | 0.00 | 0.00 | 0.00 | 28 | 999.6 |
| 20260504180401 | 70 | 270 | 9.0 | 15.0 | 0.00 | 0.00 | 0.00 | 30 | 999.6 |
| 20260504175512 | 68 | 248 | 12.0 | 19.0 | 0.00 | 0.00 | 0.00 | 31 | 999.8 |
| 20260504175403 | 68 | 248 | 12.0 | 19.0 | 0.00 | 0.00 | 0.00 | 31 | 999.8 |
| 20260504174744 | 68 | 248 | 10.0 | 16.0 | 0.00 | 0.00 | 0.00 | 32 | 999.9 |
| 20260504174548 | 68 | 248 | 10.0 | 16.0 | 0.00 | 0.00 | 0.00 | 32 | 999.9 |
| 20260504173653 | 67 | 248 | 3.0 | 6.0 | 0.00 | 0.00 | 0.00 | 36 | 1000.1 |
| 20260504172721 | 66 | 158 | 3.0 | 7.0 | 0.00 | 0.00 | 0.00 | 35 | 1000.0 |
| 20260504171743 | 65 | 158 | 2.0 | 5.0 | 0.00 | 0.00 | 0.00 | 40 | 1000.3 |
| 20260504170921 | 65 | 158 | 3.0 | 6.0 | 0.00 | 0.00 | 0.00 | 36 | 1000.3 |
| 20260504150644 | 61 | 270 | 11.0 | 16.0 | 0.00 | 0.00 | 0.00 | 35 | 1000.4 |
| 20260504141118 | 51 | 180 | 1.0 | 2.0 | 0.00 | 0.00 | 0.00 | 63 | 1000.5 |
| 20260504140214 | 50 | 0 | 0.0 | 2.0 | 0.00 | 0.00 | 0.00 | 64 | 1000.6 |
| 20260504110158 | 41 | 0 | 0.0 | 2.0 | 0.00 | 0.00 | 0.00 | 55 | 1000.6 |
| 20260504081409 | 49 | 0 | 0.0 | 2.0 | 0.00 | 0.00 | 0.00 | 42 | 1001.3 |
| 20260504081138 | 49 | 0 | 0.0 | 2.0 | 0.00 | 0.00 | 0.00 | 42 | 1001.3 |
| 20260504080308 | 49 | 338 | 1.0 | 2.0 | 0.00 | 0.00 | 0.00 | 41 | 1001.4 |
| 20260504070409 | 51 | 270 | 2.0 | 4.0 | 0.00 | 0.00 | 0.00 | 40 | 1001.9 |
| 20260504070153 | 51 | 270 | 2.0 | 4.0 | 0.00 | 0.00 | 0.00 | 40 | 1001.9 |
| 20260504050433 | 59 | 0 | 4.0 | 10.0 | 0.00 | 0.00 | 0.00 | 34 | 1001.9 |
| 20260504045558 | 60 | 0 | 6.0 | 15.0 | 0.00 | 0.00 | 0.00 | 33 | 1001.9 |
| 20260504044558 | 60 | 0 | 5.0 | 12.0 | 0.00 | 0.00 | 0.00 | 31 | 1001.9 |
| 20260504043611 | 60 | 0 | 8.0 | 14.0 | 0.00 | 0.00 | 0.00 | 33 | 1001.8 |
| 20260504042618 | 58 | 338 | 4.0 | 13.0 | 0.00 | 0.00 | 0.00 | 35 | 1001.8 |
| 20260504041812 | 58 | 270 | 6.0 | 10.0 | 0.00 | 0.00 | 0.00 | 35 | 1001.5 |
| 20260504040928 | 57 | 270 | 7.0 | 12.0 | 0.00 | 0.00 | 0.00 | 35 | 1001.6 |
| 20260504035947 | 57 | 270 | 7.0 | 13.0 | 0.00 | 0.00 | 0.00 | 36 | 1001.6 |
| 20260504035033 | 57 | 270 | 6.0 | 11.0 | 0.00 | 0.00 | 0.00 | 36 | 1001.6 |
| 20260504034228 | 57 | 270 | 6.0 | 10.0 | 0.00 | 0.00 | 0.00 | 36 | 1001.6 |
| 20260504033358 | 57 | 292 | 5.0 | 8.0 | 0.00 | 0.00 | 0.00 | 37 | 1001.7 |
| 20260504032501 | 58 | 270 | 3.0 | 6.0 | 0.00 | 0.00 | 0.00 | 36 | 1001.7 |
| 20260504031649 | 58 | 270 | 1.0 | 2.0 | 0.00 | 0.00 | 0.00 | 36 | 1001.7 |
| 20260504031538 | 58 | 270 | 1.0 | 2.0 | 0.00 | 0.00 | 0.00 | 36 | 1001.7 |
| 20260504031405 | 59 | 270 | 2.0 | 3.0 | 0.00 | 0.00 | 0.00 | 35 | 1001.5 |
| 20260504030548 | 59 | 270 | 2.0 | 3.0 | 0.00 | 0.00 | 0.00 | 35 | 1001.5 |
| 20260504025723 | 60 | 270 | 2.0 | 4.0 | 0.00 | 0.00 | 0.00 | 38 | 1001.5 |
| 20260504025020 | 61 | 270 | 2.0 | 4.0 | 0.00 | 0.00 | 0.00 | 35 | 1001.4 |
| 20260504024918 | 61 | 270 | 2.0 | 4.0 | 0.00 | 0.00 | 0.00 | 35 | 1001.4 |
| 20260504024000 | 62 | 270 | 4.0 | 6.0 | 0.00 | 0.00 | 0.00 | 31 | 1001.3 |
| 20260504023404 | 62 | 270 | 4.0 | 6.0 | 0.00 | 0.00 | 0.00 | 30 | 1001.3 |
| 20260504023053 | 62 | 270 | 4.0 | 6.0 | 0.00 | 0.00 | 0.00 | 30 | 1001.3 |
| 20260504022218 | 63 | 270 | 4.0 | 6.0 | 0.00 | 0.00 | 0.00 | 30 | 1001.2 |
| 20260504021227 | 64 | 270 | 3.0 | 6.0 | 0.00 | 0.00 | 0.00 | 29 | 1001.2 |
| 20260504020413 | 64 | 270 | 4.0 | 5.0 | 0.00 | 0.00 | 0.00 | 29 | 1001.1 |
| 20260504015608 | 65 | 270 | 4.0 | 6.0 | 0.00 | 0.00 | 0.00 | 28 | 1001.1 |
| 20260504014658 | 66 | 270 | 4.0 | 7.0 | 0.00 | 0.00 | 0.00 | 28 | 1001.1 |
| 20260504014513 | 66 | 270 | 4.0 | 9.0 | 0.00 | 0.00 | 0.00 | 28 | 1000.9 |
| 20260504013848 | 66 | 270 | 4.0 | 9.0 | 0.00 | 0.00 | 0.00 | 28 | 1000.9 |
| 20260504013001 | 67 | 270 | 5.0 | 7.0 | 0.00 | 0.00 | 0.00 | 28 | 1000.9 |
| 20260504010358 | 68 | 248 | 11.0 | 18.0 | 0.00 | 0.00 | 0.00 | 26 | 1001.2 |
| 20260504004508 | 69 | 270 | 8.0 | 16.0 | 0.00 | 0.00 | 0.00 | 26 | 1001.4 |
| 20260504003620 | 69 | 248 | 6.0 | 11.0 | 0.00 | 0.00 | 0.00 | 27 | 1001.4 |
| 20260504002623 | 70 | 270 | 8.0 | 14.0 | 0.00 | 0.00 | 0.00 | 26 | 1001.4 |
| 20260504001808 | 70 | 248 | 11.0 | 18.0 | 0.00 | 0.00 | 0.00 | 26 | 1001.7 |
| 20260504000813 | 70 | 248 | 9.0 | 14.0 | 0.00 | 0.00 | 0.00 | 26 | 1001.8 |
| 20260503235841 | 69 | 225 | 3.0 | 5.0 | 0.00 | 0.00 | 0.00 | 23 | 1001.8 |
| 20260503234903 | 69 | 202 | 5.0 | 14.0 | 0.00 | 0.00 | 0.00 | 26 | 1001.8 |
| 20260503234516 | 69 | 270 | 9.0 | 16.0 | 0.00 | 0.00 | 0.00 | 24 | 1002.1 |
| 20260503233943 | 69 | 270 | 9.0 | 16.0 | 0.00 | 0.00 | 0.00 | 24 | 1002.1 |
| 20260503233511 | 70 | 270 | 8.0 | 17.0 | 0.00 | 0.00 | 0.00 | 23 | 1002.2 |
| 20260503233113 | 70 | 270 | 8.0 | 17.0 | 0.00 | 0.00 | 0.00 | 23 | 1002.2 |
| 20260503232515 | 69 | 270 | 14.0 | 33.0 | 0.00 | 0.00 | 0.00 | 21 | 1002.1 |
| 20260503232223 | 69 | 270 | 14.0 | 33.0 | 0.00 | 0.00 | 0.00 | 21 | 1002.1 |
| 20260503231258 | 70 | 270 | 10.0 | 33.0 | 0.00 | 0.00 | 0.00 | 24 | 1001.8 |
| 20260503225521 | 70 | 248 | 11.0 | 19.0 | 0.00 | 0.00 | 0.00 | 25 | 1001.7 |
| 20260503225348 | 70 | 248 | 11.0 | 19.0 | 0.00 | 0.00 | 0.00 | 25 | 1001.7 |
| 20260503224541 | 70 | 270 | 10.0 | 19.0 | 0.00 | 0.00 | 0.00 | 24 | 1001.7 |
| 20260503223618 | 71 | 270 | 9.0 | 20.0 | 0.00 | 0.00 | 0.00 | 24 | 1002.1 |
| 20260503222619 | 71 | 270 | 9.0 | 14.0 | 0.00 | 0.00 | 0.00 | 24 | 1002.1 |
| 20260503220854 | 72 | 248 | 5.0 | 10.0 | 0.00 | 0.00 | 0.00 | 23 | 1002.0 |
| 20260503215941 | 73 | 270 | 13.0 | 21.0 | 0.00 | 0.00 | 0.00 | 21 | 1002.2 |
| 20260503214113 | 74 | 270 | 11.0 | 19.0 | 0.00 | 0.00 | 0.00 | 21 | 1002.3 |
| 20260503213249 | 74 | 270 | 9.0 | 15.0 | 0.00 | 0.00 | 0.00 | 18 | 1002.4 |
| 20260503212314 | 75 | 270 | 11.0 | 20.0 | 0.00 | 0.00 | 0.00 | 19 | 1002.5 |
| 20260503211349 | 75 | 270 | 9.0 | 18.0 | 0.00 | 0.00 | 0.00 | 18 | 1002.6 |